Date_Time,Julian_Date,Latitude,Longitude,Instrument_Depth,Water_Temperature
(yyyy-mm-dd hh:mn:ss UTC),(JD),(+ deg. North),(+ deg. East),(m),(deg. C)
1983-12-15 19:00:00 UTC,2445684.291667,29.6650,-93.4789,0086,16.4000
1983-12-15 19:30:00 UTC,2445684.312500,29.6650,-93.4789,0086,16.4000
1983-12-15 20:00:00 UTC,2445684.333333,29.6650,-93.4789,0086,16.4000
1983-12-15 20:30:00 UTC,2445684.354167,29.6650,-93.4789,0086,16.5000
1983-12-15 21:00:00 UTC,2445684.375000,29.6650,-93.4789,0086,16.4000
1983-12-15 21:30:00 UTC,2445684.395833,29.6650,-93.4789,0086,16.4000
1983-12-15 22:00:00 UTC,2445684.416667,29.6650,-93.4789,0086,16.3000
1983-12-15 22:30:00 UTC,2445684.437500,29.6650,-93.4789,0086,16.3000
1983-12-15 23:00:00 UTC,2445684.458333,29.6650,-93.4789,0086,16.3000
1983-12-15 23:30:00 UTC,2445684.479167,29.6650,-93.4789,0086,16.4000
1983-12-16 00:00:00 UTC,2445684.500000,29.6650,-93.4789,0086,16.4000
1983-12-16 00:30:00 UTC,2445684.520833,29.6650,-93.4789,0086,16.3000
1983-12-16 01:00:00 UTC,2445684.541667,29.6650,-93.4789,0086,16.3000
1983-12-16 01:30:00 UTC,2445684.562500,29.6650,-93.4789,0086,16.3000
1983-12-16 02:00:00 UTC,2445684.583333,29.6650,-93.4789,0086,16.2000
1983-12-16 02:30:00 UTC,2445684.604167,29.6650,-93.4789,0086,16.2000
1983-12-16 03:00:00 UTC,2445684.625000,29.6650,-93.4789,0086,16.2000
1983-12-16 03:30:00 UTC,2445684.645833,29.6650,-93.4789,0086,16.3000
1983-12-16 04:00:00 UTC,2445684.666667,29.6650,-93.4789,0086,16.3000
1983-12-16 04:30:00 UTC,2445684.687500,29.6650,-93.4789,0086,16.3000
1983-12-16 05:00:00 UTC,2445684.708333,29.6650,-93.4789,0086,16.3000
1983-12-16 05:30:00 UTC,2445684.729167,29.6650,-93.4789,0086,16.3000
1983-12-16 06:00:00 UTC,2445684.750000,29.6650,-93.4789,0086,16.3000
1983-12-16 06:30:00 UTC,2445684.770833,29.6650,-93.4789,0086,16.3000
1983-12-16 07:00:00 UTC,2445684.791667,29.6650,-93.4789,0086,16.3000
1983-12-16 07:30:00 UTC,2445684.812500,29.6650,-93.4789,0086,16.3000
1983-12-16 08:00:00 UTC,2445684.833333,29.6650,-93.4789,0086,16.3000
1983-12-16 08:30:00 UTC,2445684.854167,29.6650,-93.4789,0086,16.3000
1983-12-16 09:00:00 UTC,2445684.875000,29.6650,-93.4789,0086,16.3000
1983-12-16 09:30:00 UTC,2445684.895833,29.6650,-93.4789,0086,16.3000
1983-12-16 10:00:00 UTC,2445684.916667,29.6650,-93.4789,0086,16.3000
1983-12-16 10:30:00 UTC,2445684.937500,29.6650,-93.4789,0086,16.2000
1983-12-16 11:00:00 UTC,2445684.958333,29.6650,-93.4789,0086,16.2000
1983-12-16 11:30:00 UTC,2445684.979167,29.6650,-93.4789,0086,16.1000
1983-12-16 12:00:00 UTC,2445685.000000,29.6650,-93.4789,0086,16.0000
1983-12-16 12:30:00 UTC,2445685.020833,29.6650,-93.4789,0086,15.9000
1983-12-16 13:00:00 UTC,2445685.041667,29.6650,-93.4789,0086,15.9000
1983-12-16 13:30:00 UTC,2445685.062500,29.6650,-93.4789,0086,15.9000
1983-12-16 14:00:00 UTC,2445685.083333,29.6650,-93.4789,0086,16.0000
1983-12-16 14:30:00 UTC,2445685.104167,29.6650,-93.4789,0086,16.0000
1983-12-16 15:00:00 UTC,2445685.125000,29.6650,-93.4789,0086,16.0000
1983-12-16 15:30:00 UTC,2445685.145833,29.6650,-93.4789,0086,16.0000
1983-12-16 16:00:00 UTC,2445685.166667,29.6650,-93.4789,0086,16.0000
1983-12-16 16:30:00 UTC,2445685.187500,29.6650,-93.4789,0086,16.1000
1983-12-16 17:00:00 UTC,2445685.208333,29.6650,-93.4789,0086,16.1000
1983-12-16 17:30:00 UTC,2445685.229167,29.6650,-93.4789,0086,16.1000
1983-12-16 18:00:00 UTC,2445685.250000,29.6650,-93.4789,0086,16.2000
1983-12-16 18:30:00 UTC,2445685.270833,29.6650,-93.4789,0086,16.2000
1983-12-16 19:00:00 UTC,2445685.291667,29.6650,-93.4789,0086,16.1000
1983-12-16 19:30:00 UTC,2445685.312500,29.6650,-93.4789,0086,16.1000
1983-12-16 20:00:00 UTC,2445685.333333,29.6650,-93.4789,0086,16.0000
1983-12-16 20:30:00 UTC,2445685.354167,29.6650,-93.4789,0086,15.9000
1983-12-16 21:00:00 UTC,2445685.375000,29.6650,-93.4789,0086,15.8000
1983-12-16 21:30:00 UTC,2445685.395833,29.6650,-93.4789,0086,15.8000
1983-12-16 22:00:00 UTC,2445685.416667,29.6650,-93.4789,0086,15.7000
1983-12-16 22:30:00 UTC,2445685.437500,29.6650,-93.4789,0086,15.7000
1983-12-16 23:00:00 UTC,2445685.458333,29.6650,-93.4789,0086,15.7000
1983-12-16 23:30:00 UTC,2445685.479167,29.6650,-93.4789,0086,15.7000
1983-12-17 00:00:00 UTC,2445685.500000,29.6650,-93.4789,0086,15.6000
1983-12-17 00:30:00 UTC,2445685.520833,29.6650,-93.4789,0086,15.6000
1983-12-17 01:00:00 UTC,2445685.541667,29.6650,-93.4789,0086,15.6000
1983-12-17 01:30:00 UTC,2445685.562500,29.6650,-93.4789,0086,15.6000
1983-12-17 02:00:00 UTC,2445685.583333,29.6650,-93.4789,0086,15.6000
1983-12-17 02:30:00 UTC,2445685.604167,29.6650,-93.4789,0086,15.6000
1983-12-17 03:00:00 UTC,2445685.625000,29.6650,-93.4789,0086,15.5000
1983-12-17 03:30:00 UTC,2445685.645833,29.6650,-93.4789,0086,15.5000
1983-12-17 04:00:00 UTC,2445685.666667,29.6650,-93.4789,0086,15.5000
1983-12-17 04:30:00 UTC,2445685.687500,29.6650,-93.4789,0086,15.5000
1983-12-17 05:00:00 UTC,2445685.708333,29.6650,-93.4789,0086,15.5000
1983-12-17 05:30:00 UTC,2445685.729167,29.6650,-93.4789,0086,15.5000
1983-12-17 06:00:00 UTC,2445685.750000,29.6650,-93.4789,0086,15.5000
1983-12-17 06:30:00 UTC,2445685.770833,29.6650,-93.4789,0086,15.5000
1983-12-17 07:00:00 UTC,2445685.791667,29.6650,-93.4789,0086,15.5000
1983-12-17 07:30:00 UTC,2445685.812500,29.6650,-93.4789,0086,15.5000
1983-12-17 08:00:00 UTC,2445685.833333,29.6650,-93.4789,0086,15.5000
1983-12-17 08:30:00 UTC,2445685.854167,29.6650,-93.4789,0086,15.4000
1983-12-17 09:00:00 UTC,2445685.875000,29.6650,-93.4789,0086,15.3000
1983-12-17 09:30:00 UTC,2445685.895833,29.6650,-93.4789,0086,15.1000
1983-12-17 10:00:00 UTC,2445685.916667,29.6650,-93.4789,0086,15.1000
1983-12-17 10:30:00 UTC,2445685.937500,29.6650,-93.4789,0086,15.1000
1983-12-17 11:00:00 UTC,2445685.958333,29.6650,-93.4789,0086,15.0000
1983-12-17 11:30:00 UTC,2445685.979167,29.6650,-93.4789,0086,15.0000
1983-12-17 12:00:00 UTC,2445686.000000,29.6650,-93.4789,0086,15.1000
1983-12-17 12:30:00 UTC,2445686.020833,29.6650,-93.4789,0086,15.2000
1983-12-17 13:00:00 UTC,2445686.041667,29.6650,-93.4789,0086,15.2000
1983-12-17 13:30:00 UTC,2445686.062500,29.6650,-93.4789,0086,15.2000
1983-12-17 14:00:00 UTC,2445686.083333,29.6650,-93.4789,0086,15.2000
1983-12-17 14:30:00 UTC,2445686.104167,29.6650,-93.4789,0086,15.2000
1983-12-17 15:00:00 UTC,2445686.125000,29.6650,-93.4789,0086,15.2000
1983-12-17 15:30:00 UTC,2445686.145833,29.6650,-93.4789,0086,15.2000
1983-12-17 16:00:00 UTC,2445686.166667,29.6650,-93.4789,0086,15.2000
1983-12-17 16:30:00 UTC,2445686.187500,29.6650,-93.4789,0086,15.1000
1983-12-17 17:00:00 UTC,2445686.208333,29.6650,-93.4789,0086,15.1000
1983-12-17 17:30:00 UTC,2445686.229167,29.6650,-93.4789,0086,15.1000
1983-12-17 18:00:00 UTC,2445686.250000,29.6650,-93.4789,0086,15.1000
1983-12-17 18:30:00 UTC,2445686.270833,29.6650,-93.4789,0086,15.1000
1983-12-17 19:00:00 UTC,2445686.291667,29.6650,-93.4789,0086,15.0000
1983-12-17 19:30:00 UTC,2445686.312500,29.6650,-93.4789,0086,15.0000
1983-12-17 20:00:00 UTC,2445686.333333,29.6650,-93.4789,0086,15.0000
1983-12-17 20:30:00 UTC,2445686.354167,29.6650,-93.4789,0086,15.0000
1983-12-17 21:00:00 UTC,2445686.375000,29.6650,-93.4789,0086,15.0000
1983-12-17 21:30:00 UTC,2445686.395833,29.6650,-93.4789,0086,15.0000
1983-12-17 22:00:00 UTC,2445686.416667,29.6650,-93.4789,0086,15.0000
1983-12-17 22:30:00 UTC,2445686.437500,29.6650,-93.4789,0086,15.0000
1983-12-17 23:00:00 UTC,2445686.458333,29.6650,-93.4789,0086,15.0000
1983-12-17 23:30:00 UTC,2445686.479167,29.6650,-93.4789,0086,15.0000
1983-12-18 00:00:00 UTC,2445686.500000,29.6650,-93.4789,0086,15.0000
1983-12-18 00:30:00 UTC,2445686.520833,29.6650,-93.4789,0086,15.0000
1983-12-18 01:00:00 UTC,2445686.541667,29.6650,-93.4789,0086,15.0000
1983-12-18 01:30:00 UTC,2445686.562500,29.6650,-93.4789,0086,14.9000
1983-12-18 02:00:00 UTC,2445686.583333,29.6650,-93.4789,0086,14.8000
1983-12-18 02:30:00 UTC,2445686.604167,29.6650,-93.4789,0086,14.8000
1983-12-18 03:00:00 UTC,2445686.625000,29.6650,-93.4789,0086,14.8000
1983-12-18 03:30:00 UTC,2445686.645833,29.6650,-93.4789,0086,14.9000
1983-12-18 04:00:00 UTC,2445686.666667,29.6650,-93.4789,0086,14.9000
1983-12-18 04:30:00 UTC,2445686.687500,29.6650,-93.4789,0086,14.9000
1983-12-18 05:00:00 UTC,2445686.708333,29.6650,-93.4789,0086,14.9000
1983-12-18 05:30:00 UTC,2445686.729167,29.6650,-93.4789,0086,14.9000
1983-12-18 06:00:00 UTC,2445686.750000,29.6650,-93.4789,0086,14.9000
1983-12-18 06:30:00 UTC,2445686.770833,29.6650,-93.4789,0086,14.9000
1983-12-18 07:00:00 UTC,2445686.791667,29.6650,-93.4789,0086,14.8000
1983-12-18 07:30:00 UTC,2445686.812500,29.6650,-93.4789,0086,14.8000
1983-12-18 08:00:00 UTC,2445686.833333,29.6650,-93.4789,0086,14.8000
1983-12-18 08:30:00 UTC,2445686.854167,29.6650,-93.4789,0086,14.8000
1983-12-18 09:00:00 UTC,2445686.875000,29.6650,-93.4789,0086,14.8000
1983-12-18 09:30:00 UTC,2445686.895833,29.6650,-93.4789,0086,14.8000
1983-12-18 10:00:00 UTC,2445686.916667,29.6650,-93.4789,0086,14.8000
1983-12-18 10:30:00 UTC,2445686.937500,29.6650,-93.4789,0086,14.8000
1983-12-18 11:00:00 UTC,2445686.958333,29.6650,-93.4789,0086,14.8000
1983-12-18 11:30:00 UTC,2445686.979167,29.6650,-93.4789,0086,14.8000
1983-12-18 12:00:00 UTC,2445687.000000,29.6650,-93.4789,0086,14.8000
1983-12-18 12:30:00 UTC,2445687.020833,29.6650,-93.4789,0086,14.7000
1983-12-18 13:00:00 UTC,2445687.041667,29.6650,-93.4789,0086,14.7000
1983-12-18 13:30:00 UTC,2445687.062500,29.6650,-93.4789,0086,14.7000
1983-12-18 14:00:00 UTC,2445687.083333,29.6650,-93.4789,0086,14.7000
1983-12-18 14:30:00 UTC,2445687.104167,29.6650,-93.4789,0086,14.7000
1983-12-18 15:00:00 UTC,2445687.125000,29.6650,-93.4789,0086,14.7000
1983-12-18 15:30:00 UTC,2445687.145833,29.6650,-93.4789,0086,14.7000
1983-12-18 16:00:00 UTC,2445687.166667,29.6650,-93.4789,0086,14.7000
1983-12-18 16:30:00 UTC,2445687.187500,29.6650,-93.4789,0086,14.7000
1983-12-18 17:00:00 UTC,2445687.208333,29.6650,-93.4789,0086,14.7000
1983-12-18 17:30:00 UTC,2445687.229167,29.6650,-93.4789,0086,14.7000
1983-12-18 18:00:00 UTC,2445687.250000,29.6650,-93.4789,0086,14.7000
1983-12-18 18:30:00 UTC,2445687.270833,29.6650,-93.4789,0086,14.7000
1983-12-18 19:00:00 UTC,2445687.291667,29.6650,-93.4789,0086,14.7000
1983-12-18 19:30:00 UTC,2445687.312500,29.6650,-93.4789,0086,14.8000
1983-12-18 20:00:00 UTC,2445687.333333,29.6650,-93.4789,0086,14.8000
1983-12-18 20:30:00 UTC,2445687.354167,29.6650,-93.4789,0086,14.8000
1983-12-18 21:00:00 UTC,2445687.375000,29.6650,-93.4789,0086,14.8000
1983-12-18 21:30:00 UTC,2445687.395833,29.6650,-93.4789,0086,14.8000
1983-12-18 22:00:00 UTC,2445687.416667,29.6650,-93.4789,0086,14.8000
1983-12-18 22:30:00 UTC,2445687.437500,29.6650,-93.4789,0086,14.8000
1983-12-18 23:00:00 UTC,2445687.458333,29.6650,-93.4789,0086,14.8000
1983-12-18 23:30:00 UTC,2445687.479167,29.6650,-93.4789,0086,14.8000
1983-12-19 00:00:00 UTC,2445687.500000,29.6650,-93.4789,0086,14.8000
1983-12-19 00:30:00 UTC,2445687.520833,29.6650,-93.4789,0086,14.8000
1983-12-19 01:00:00 UTC,2445687.541667,29.6650,-93.4789,0086,14.8000
1983-12-19 01:30:00 UTC,2445687.562500,29.6650,-93.4789,0086,14.8000
1983-12-19 02:00:00 UTC,2445687.583333,29.6650,-93.4789,0086,14.8000
1983-12-19 02:30:00 UTC,2445687.604167,29.6650,-93.4789,0086,14.8000
1983-12-19 03:00:00 UTC,2445687.625000,29.6650,-93.4789,0086,14.9000
1983-12-19 03:30:00 UTC,2445687.645833,29.6650,-93.4789,0086,14.9000
1983-12-19 04:00:00 UTC,2445687.666667,29.6650,-93.4789,0086,14.9000
1983-12-19 04:30:00 UTC,2445687.687500,29.6650,-93.4789,0086,15.0000
1983-12-19 05:00:00 UTC,2445687.708333,29.6650,-93.4789,0086,15.0000
1983-12-19 05:30:00 UTC,2445687.729167,29.6650,-93.4789,0086,15.0000
1983-12-19 06:00:00 UTC,2445687.750000,29.6650,-93.4789,0086,15.0000
1983-12-19 06:30:00 UTC,2445687.770833,29.6650,-93.4789,0086,15.0000
1983-12-19 07:00:00 UTC,2445687.791667,29.6650,-93.4789,0086,15.0000
1983-12-19 07:30:00 UTC,2445687.812500,29.6650,-93.4789,0086,14.8000
1983-12-19 08:00:00 UTC,2445687.833333,29.6650,-93.4789,0086,14.7000
1983-12-19 08:30:00 UTC,2445687.854167,29.6650,-93.4789,0086,14.6000
1983-12-19 09:00:00 UTC,2445687.875000,29.6650,-93.4789,0086,14.5000
1983-12-19 09:30:00 UTC,2445687.895833,29.6650,-93.4789,0086,14.4000
1983-12-19 10:00:00 UTC,2445687.916667,29.6650,-93.4789,0086,14.3000
1983-12-19 10:30:00 UTC,2445687.937500,29.6650,-93.4789,0086,14.4000
1983-12-19 11:00:00 UTC,2445687.958333,29.6650,-93.4789,0086,14.4000
1983-12-19 11:30:00 UTC,2445687.979167,29.6650,-93.4789,0086,14.3000
1983-12-19 12:00:00 UTC,2445688.000000,29.6650,-93.4789,0086,14.1000
1983-12-19 12:30:00 UTC,2445688.020833,29.6650,-93.4789,0086,14.1000
1983-12-19 13:00:00 UTC,2445688.041667,29.6650,-93.4789,0086,14.1000
1983-12-19 13:30:00 UTC,2445688.062500,29.6650,-93.4789,0086,14.1000
1983-12-19 14:00:00 UTC,2445688.083333,29.6650,-93.4789,0086,14.1000
1983-12-19 14:30:00 UTC,2445688.104167,29.6650,-93.4789,0086,14.0000
1983-12-19 15:00:00 UTC,2445688.125000,29.6650,-93.4789,0086,13.9000
1983-12-19 15:30:00 UTC,2445688.145833,29.6650,-93.4789,0086,13.9000
1983-12-19 16:00:00 UTC,2445688.166667,29.6650,-93.4789,0086,13.9000
1983-12-19 16:30:00 UTC,2445688.187500,29.6650,-93.4789,0086,14.0000
1983-12-19 17:00:00 UTC,2445688.208333,29.6650,-93.4789,0086,14.0000
1983-12-19 17:30:00 UTC,2445688.229167,29.6650,-93.4789,0086,14.0000
1983-12-19 18:00:00 UTC,2445688.250000,29.6650,-93.4789,0086,14.1000
1983-12-19 18:30:00 UTC,2445688.270833,29.6650,-93.4789,0086,14.1000
1983-12-19 19:00:00 UTC,2445688.291667,29.6650,-93.4789,0086,14.1000
1983-12-19 19:30:00 UTC,2445688.312500,29.6650,-93.4789,0086,14.1000
1983-12-19 20:00:00 UTC,2445688.333333,29.6650,-93.4789,0086,14.1000
1983-12-19 20:30:00 UTC,2445688.354167,29.6650,-93.4789,0086,14.1000
1983-12-19 21:00:00 UTC,2445688.375000,29.6650,-93.4789,0086,14.1000
1983-12-19 21:30:00 UTC,2445688.395833,29.6650,-93.4789,0086,14.1000
1983-12-19 22:00:00 UTC,2445688.416667,29.6650,-93.4789,0086,14.1000
1983-12-19 22:30:00 UTC,2445688.437500,29.6650,-93.4789,0086,14.1000
1983-12-19 23:00:00 UTC,2445688.458333,29.6650,-93.4789,0086,14.1000
1983-12-19 23:30:00 UTC,2445688.479167,29.6650,-93.4789,0086,14.1000
1983-12-20 00:00:00 UTC,2445688.500000,29.6650,-93.4789,0086,14.1000
1983-12-20 00:30:00 UTC,2445688.520833,29.6650,-93.4789,0086,14.1000
1983-12-20 01:00:00 UTC,2445688.541667,29.6650,-93.4789,0086,14.0000
1983-12-20 01:30:00 UTC,2445688.562500,29.6650,-93.4789,0086,14.0000
1983-12-20 02:00:00 UTC,2445688.583333,29.6650,-93.4789,0086,14.0000
1983-12-20 02:30:00 UTC,2445688.604167,29.6650,-93.4789,0086,14.0000
1983-12-20 03:00:00 UTC,2445688.625000,29.6650,-93.4789,0086,14.0000
1983-12-20 03:30:00 UTC,2445688.645833,29.6650,-93.4789,0086,14.1000
1983-12-20 04:00:00 UTC,2445688.666667,29.6650,-93.4789,0086,14.1000
1983-12-20 04:30:00 UTC,2445688.687500,29.6650,-93.4789,0086,14.1000
1983-12-20 05:00:00 UTC,2445688.708333,29.6650,-93.4789,0086,14.1000
1983-12-20 05:30:00 UTC,2445688.729167,29.6650,-93.4789,0086,14.2000
1983-12-20 06:00:00 UTC,2445688.750000,29.6650,-93.4789,0086,14.2000
1983-12-20 06:30:00 UTC,2445688.770833,29.6650,-93.4789,0086,14.3000
1983-12-20 07:00:00 UTC,2445688.791667,29.6650,-93.4789,0086,14.2000
1983-12-20 07:30:00 UTC,2445688.812500,29.6650,-93.4789,0086,14.2000
1983-12-20 08:00:00 UTC,2445688.833333,29.6650,-93.4789,0086,14.3000
1983-12-20 08:30:00 UTC,2445688.854167,29.6650,-93.4789,0086,14.4000
1983-12-20 09:00:00 UTC,2445688.875000,29.6650,-93.4789,0086,14.2000
1983-12-20 09:30:00 UTC,2445688.895833,29.6650,-93.4789,0086,14.1000
1983-12-20 10:00:00 UTC,2445688.916667,29.6650,-93.4789,0086,14.0000
1983-12-20 10:30:00 UTC,2445688.937500,29.6650,-93.4789,0086,14.1000
1983-12-20 11:00:00 UTC,2445688.958333,29.6650,-93.4789,0086,14.3000
1983-12-20 11:30:00 UTC,2445688.979167,29.6650,-93.4789,0086,14.2000
1983-12-20 12:00:00 UTC,2445689.000000,29.6650,-93.4789,0086,14.1000
1983-12-20 12:30:00 UTC,2445689.020833,29.6650,-93.4789,0086,14.0000
1983-12-20 13:00:00 UTC,2445689.041667,29.6650,-93.4789,0086,13.9000
1983-12-20 13:30:00 UTC,2445689.062500,29.6650,-93.4789,0086,13.9000
1983-12-20 14:00:00 UTC,2445689.083333,29.6650,-93.4789,0086,14.0000
1983-12-20 14:30:00 UTC,2445689.104167,29.6650,-93.4789,0086,14.0000
1983-12-20 15:00:00 UTC,2445689.125000,29.6650,-93.4789,0086,13.7000
1983-12-20 15:30:00 UTC,2445689.145833,29.6650,-93.4789,0086,13.5000
1983-12-20 16:00:00 UTC,2445689.166667,29.6650,-93.4789,0086,13.4000
1983-12-20 16:30:00 UTC,2445689.187500,29.6650,-93.4789,0086,13.5000
1983-12-20 17:00:00 UTC,2445689.208333,29.6650,-93.4789,0086,13.6000
1983-12-20 17:30:00 UTC,2445689.229167,29.6650,-93.4789,0086,13.7000
1983-12-20 18:00:00 UTC,2445689.250000,29.6650,-93.4789,0086,13.8000
1983-12-20 18:30:00 UTC,2445689.270833,29.6650,-93.4789,0086,13.8000
1983-12-20 19:00:00 UTC,2445689.291667,29.6650,-93.4789,0086,13.9000
1983-12-20 19:30:00 UTC,2445689.312500,29.6650,-93.4789,0086,14.0000
1983-12-20 20:00:00 UTC,2445689.333333,29.6650,-93.4789,0086,14.0000
1983-12-20 20:30:00 UTC,2445689.354167,29.6650,-93.4789,0086,14.0000
1983-12-20 21:00:00 UTC,2445689.375000,29.6650,-93.4789,0086,14.1000
1983-12-20 21:30:00 UTC,2445689.395833,29.6650,-93.4789,0086,14.1000
1983-12-20 22:00:00 UTC,2445689.416667,29.6650,-93.4789,0086,14.1000
1983-12-20 22:30:00 UTC,2445689.437500,29.6650,-93.4789,0086,14.1000
1983-12-20 23:00:00 UTC,2445689.458333,29.6650,-93.4789,0086,14.1000
1983-12-20 23:30:00 UTC,2445689.479167,29.6650,-93.4789,0086,14.1000
1983-12-21 00:00:00 UTC,2445689.500000,29.6650,-93.4789,0086,14.2000
1983-12-21 00:30:00 UTC,2445689.520833,29.6650,-93.4789,0086,14.1000
1983-12-21 01:00:00 UTC,2445689.541667,29.6650,-93.4789,0086,14.1000
1983-12-21 01:30:00 UTC,2445689.562500,29.6650,-93.4789,0086,14.0000
1983-12-21 02:00:00 UTC,2445689.583333,29.6650,-93.4789,0086,13.9000
1983-12-21 02:30:00 UTC,2445689.604167,29.6650,-93.4789,0086,13.8000
1983-12-21 03:00:00 UTC,2445689.625000,29.6650,-93.4789,0086,13.8000
1983-12-21 03:30:00 UTC,2445689.645833,29.6650,-93.4789,0086,13.8000
1983-12-21 04:00:00 UTC,2445689.666667,29.6650,-93.4789,0086,13.8000
1983-12-21 04:30:00 UTC,2445689.687500,29.6650,-93.4789,0086,13.7000
1983-12-21 05:00:00 UTC,2445689.708333,29.6650,-93.4789,0086,13.7000
1983-12-21 05:30:00 UTC,2445689.729167,29.6650,-93.4789,0086,13.8000
1983-12-21 06:00:00 UTC,2445689.750000,29.6650,-93.4789,0086,13.8000
1983-12-21 06:30:00 UTC,2445689.770833,29.6650,-93.4789,0086,13.8000
1983-12-21 07:00:00 UTC,2445689.791667,29.6650,-93.4789,0086,13.8000
1983-12-21 07:30:00 UTC,2445689.812500,29.6650,-93.4789,0086,13.8000
1983-12-21 08:00:00 UTC,2445689.833333,29.6650,-93.4789,0086,13.8000
1983-12-21 08:30:00 UTC,2445689.854167,29.6650,-93.4789,0086,13.8000
1983-12-21 09:00:00 UTC,2445689.875000,29.6650,-93.4789,0086,13.8000
1983-12-21 09:30:00 UTC,2445689.895833,29.6650,-93.4789,0086,13.8000
1983-12-21 10:00:00 UTC,2445689.916667,29.6650,-93.4789,0086,13.8000
1983-12-21 10:30:00 UTC,2445689.937500,29.6650,-93.4789,0086,13.8000
1983-12-21 11:00:00 UTC,2445689.958333,29.6650,-93.4789,0086,13.7000
1983-12-21 11:30:00 UTC,2445689.979167,29.6650,-93.4789,0086,13.7000
1983-12-21 12:00:00 UTC,2445690.000000,29.6650,-93.4789,0086,13.6000
1983-12-21 12:30:00 UTC,2445690.020833,29.6650,-93.4789,0086,13.5000
1983-12-21 13:00:00 UTC,2445690.041667,29.6650,-93.4789,0086,13.5000
1983-12-21 13:30:00 UTC,2445690.062500,29.6650,-93.4789,0086,13.4000
1983-12-21 14:00:00 UTC,2445690.083333,29.6650,-93.4789,0086,13.3000
1983-12-21 14:30:00 UTC,2445690.104167,29.6650,-93.4789,0086,13.3000
1983-12-21 15:00:00 UTC,2445690.125000,29.6650,-93.4789,0086,13.3000
1983-12-21 15:30:00 UTC,2445690.145833,29.6650,-93.4789,0086,13.3000
1983-12-21 16:00:00 UTC,2445690.166667,29.6650,-93.4789,0086,13.3000
1983-12-21 16:30:00 UTC,2445690.187500,29.6650,-93.4789,0086,13.3000
1983-12-21 17:00:00 UTC,2445690.208333,29.6650,-93.4789,0086,13.2000
1983-12-21 17:30:00 UTC,2445690.229167,29.6650,-93.4789,0086,13.2000
1983-12-21 18:00:00 UTC,2445690.250000,29.6650,-93.4789,0086,13.2000
1983-12-21 18:30:00 UTC,2445690.270833,29.6650,-93.4789,0086,13.3000
1983-12-21 19:00:00 UTC,2445690.291667,29.6650,-93.4789,0086,13.4000
1983-12-21 19:30:00 UTC,2445690.312500,29.6650,-93.4789,0086,13.5000
1983-12-21 20:00:00 UTC,2445690.333333,29.6650,-93.4789,0086,13.5000
1983-12-21 20:30:00 UTC,2445690.354167,29.6650,-93.4789,0086,13.5000
1983-12-21 21:00:00 UTC,2445690.375000,29.6650,-93.4789,0086,13.5000
1983-12-21 21:30:00 UTC,2445690.395833,29.6650,-93.4789,0086,13.5000
1983-12-21 22:00:00 UTC,2445690.416667,29.6650,-93.4789,0086,13.5000
1983-12-21 22:30:00 UTC,2445690.437500,29.6650,-93.4789,0086,13.5000
1983-12-21 23:00:00 UTC,2445690.458333,29.6650,-93.4789,0086,13.6000
1983-12-21 23:30:00 UTC,2445690.479167,29.6650,-93.4789,0086,13.7000
1983-12-22 00:00:00 UTC,2445690.500000,29.6650,-93.4789,0086,13.8000
1983-12-22 00:30:00 UTC,2445690.520833,29.6650,-93.4789,0086,13.8000
1983-12-22 01:00:00 UTC,2445690.541667,29.6650,-93.4789,0086,13.8000
1983-12-22 01:30:00 UTC,2445690.562500,29.6650,-93.4789,0086,13.8000
1983-12-22 02:00:00 UTC,2445690.583333,29.6650,-93.4789,0086,13.9000
1983-12-22 02:30:00 UTC,2445690.604167,29.6650,-93.4789,0086,13.9000
1983-12-22 03:00:00 UTC,2445690.625000,29.6650,-93.4789,0086,13.9000
1983-12-22 03:30:00 UTC,2445690.645833,29.6650,-93.4789,0086,13.8000
1983-12-22 04:00:00 UTC,2445690.666667,29.6650,-93.4789,0086,13.9000
1983-12-22 04:30:00 UTC,2445690.687500,29.6650,-93.4789,0086,14.0000
1983-12-22 05:00:00 UTC,2445690.708333,29.6650,-93.4789,0086,14.0000
1983-12-22 05:30:00 UTC,2445690.729167,29.6650,-93.4789,0086,14.0000
1983-12-22 06:00:00 UTC,2445690.750000,29.6650,-93.4789,0086,13.9000
1983-12-22 06:30:00 UTC,2445690.770833,29.6650,-93.4789,0086,13.9000
1983-12-22 07:00:00 UTC,2445690.791667,29.6650,-93.4789,0086,13.9000
1983-12-22 07:30:00 UTC,2445690.812500,29.6650,-93.4789,0086,13.8000
1983-12-22 08:00:00 UTC,2445690.833333,29.6650,-93.4789,0086,13.9000
1983-12-22 08:30:00 UTC,2445690.854167,29.6650,-93.4789,0086,13.9000
1983-12-22 09:00:00 UTC,2445690.875000,29.6650,-93.4789,0086,13.8000
1983-12-22 09:30:00 UTC,2445690.895833,29.6650,-93.4789,0086,13.8000
1983-12-22 10:00:00 UTC,2445690.916667,29.6650,-93.4789,0086,13.7000
1983-12-22 10:30:00 UTC,2445690.937500,29.6650,-93.4789,0086,13.7000
1983-12-22 11:00:00 UTC,2445690.958333,29.6650,-93.4789,0086,13.7000
1983-12-22 11:30:00 UTC,2445690.979167,29.6650,-93.4789,0086,13.6000
1983-12-22 12:00:00 UTC,2445691.000000,29.6650,-93.4789,0086,13.4000
1983-12-22 12:30:00 UTC,2445691.020833,29.6650,-93.4789,0086,13.3000
1983-12-22 13:00:00 UTC,2445691.041667,29.6650,-93.4789,0086,13.2000
1983-12-22 13:30:00 UTC,2445691.062500,29.6650,-93.4789,0086,13.1000
1983-12-22 14:00:00 UTC,2445691.083333,29.6650,-93.4789,0086,13.1000
1983-12-22 14:30:00 UTC,2445691.104167,29.6650,-93.4789,0086,13.1000
1983-12-22 15:00:00 UTC,2445691.125000,29.6650,-93.4789,0086,13.0000
1983-12-22 15:30:00 UTC,2445691.145833,29.6650,-93.4789,0086,12.9000
1983-12-22 16:00:00 UTC,2445691.166667,29.6650,-93.4789,0086,12.8000
1983-12-22 16:30:00 UTC,2445691.187500,29.6650,-93.4789,0086,12.7000
1983-12-22 17:00:00 UTC,2445691.208333,29.6650,-93.4789,0086,12.7000
1983-12-22 17:30:00 UTC,2445691.229167,29.6650,-93.4789,0086,12.6000
1983-12-22 18:00:00 UTC,2445691.250000,29.6650,-93.4789,0086,12.5000
1983-12-22 18:30:00 UTC,2445691.270833,29.6650,-93.4789,0086,12.4000
1983-12-22 19:00:00 UTC,2445691.291667,29.6650,-93.4789,0086,12.4000
1983-12-22 19:30:00 UTC,2445691.312500,29.6650,-93.4789,0086,12.4000
1983-12-22 20:00:00 UTC,2445691.333333,29.6650,-93.4789,0086,12.4000
1983-12-22 20:30:00 UTC,2445691.354167,29.6650,-93.4789,0086,12.4000
1983-12-22 21:00:00 UTC,2445691.375000,29.6650,-93.4789,0086,12.5000
1983-12-22 21:30:00 UTC,2445691.395833,29.6650,-93.4789,0086,12.7000
1983-12-22 22:00:00 UTC,2445691.416667,29.6650,-93.4789,0086,12.9000
1983-12-22 22:30:00 UTC,2445691.437500,29.6650,-93.4789,0086,13.0000
1983-12-22 23:00:00 UTC,2445691.458333,29.6650,-93.4789,0086,13.1000